Weather in Markovo

Russia / Vladimir Oblast     55°51′47″N   39°17′33″E
temp.,
°C
wind,
m/s
gust,
m/s
humid.,
%
clouds,
%
prec.,
mm/h
press.,
hPa
HPBL,
m
8 march, mon
mon800:00−5wnw61191100 0.6 9951060
03:00−10wsw4109167 0.6 996302
06:00−10wsw389567 0.0 995294
09:00−7wsw369483 0.3 996431
12:00−5nw4779100 0.7 9991135
15:00−4nw577585 1.0 10011147
18:00−8nw398940 0.1 1005391
21:00−12nw259435 0.1 1008119
9 march, tue
tue900:00−15nw25969 0.0 1009108
03:00−16nw249747 0.0 101183
06:00−16nnw369779 0.1 1013176
09:00−16nnw359382 0.1 1015261
12:00−13nnw358591 0.0 1016569
15:00−11nnw358395 0.1 1017760
18:00−14nnw3791100 0.1 1018343
21:00−19nnw379794 0.1 1021163
10 march, wed
wed1000:00−22nnw259852 0.0 1023100
03:00−24nnw249854 0.0 102481
06:00−25nnw25970 0.0 1026110
09:00−23n36920 0.0 1027270
12:00−17n247962 0.0 1028566
15:00−15n347537 0.0 1028722
18:00−18n22880 0.0 102820
21:00−21nnw12910 0.0 103020
11 march, thu
thu1100:00−22wnw12950 0.0 103020
03:00−23wnw22910 0.0 103120
06:00−23wnw22930 0.0 103120
09:00−19wnw23890 0.0 1032165
12:00−12wnw228138 0.0 1031440
15:00−10wsw227664 0.0 1031609
18:00−14sw228970 0.0 103120
21:00−17ssw239235 0.0 103123
12 march, fri
fri1200:00−19ssw23930 0.0 103162
03:00−21s37890 0.0 1030119
06:00−21sse39920 0.0 1028213
09:00−17sse410763 0.0 1027338
12:00−11sse5118055 0.0 1024459
15:00−9sse6138077 0.0 1020641
18:00−10sse71681100 0.0 1018786
21:00−10sse71691100 0.6 1016920